Regional Weather Roundup
Issued by NWS

Home | Current Version | Previous Version | Graphics & Text | Print | Product List | Glossary Off
Versions: 1 2 3 4 5 6 7 8 9 10 11 12 13 14 15 16 17 18 19 20 21 22 23 24 25 26 27 28 29 30 31 32 33 34 35 36 37 38 39 40 41 42 43 44 45 46 47 48 49 50

000
ASUS43 KMKX 161810
RWRWI

WISCONSIN REGIONAL WEATHER ROUNDUP
NATIONAL WEATHER SERVICE MILWAUKEE/SULLIVAN WI
1200 PM CST SAT DEC 16 2017

NOTE: "FAIR" INDICATES FEW OR NO CLOUDS BELOW 12,000 FEET WITH NO
SIGNIFICANT WEATHER AND/OR OBSTRUCTIONS TO VISIBILITY.

WIZ001-002-006>008-014>016-023>028-161900-
NORTHWEST WISCONSIN

CITY           SKY/WX    TMP DP  RH WIND       PRES   REMARKS
SUPERIOR ARPT  CLOUDY    21  11  66 E10       29.97S WCI  10
6HR MIN TEMP:  15; 6HR MAX TEMP:  21;

ASHLAND        CLOUDY    19   9  65 E6        29.98F WCI  11
6HR MIN TEMP:   4; 6HR MAX TEMP:  19;

HAYWARD        CLOUDY    19   9  65 E7        29.93S WCI  10
6HR MIN TEMP:  15; 6HR MAX TEMP:  19;

SIREN          CLOUDY    23  16  74 E6        29.90F WCI  16
6HR MIN TEMP:  19; 6HR MAX TEMP:  23;

CUMBERLAND     CLOUDY    21  14  73 E9        29.90S WCI  11
RICE LAKE      CLOUDY    22  16  76 NE7       29.93R WCI  14
6HR MIN TEMP:  20; 6HR MAX TEMP:  22;

CHETEK         CLOUDY    22  16  76 E8        29.91R WCI  13
6HR MIN TEMP:  19; 6HR MAX TEMP:  22;

LADYSMITH      CLOUDY    20  13  72 E8        29.94R WCI  11
6HR MIN TEMP:  17; 6HR MAX TEMP:  21;

EAU CLAIRE     CLOUDY    23  17  78 E9        29.91R WCI  13
6HR MIN TEMP:  21; 6HR MAX TEMP:  23;

MENOMONIE      CLOUDY    26  19  74 NE8       29.91R WCI  18
6HR MIN TEMP:  23; 6HR MAX TEMP:  26;

NEW RICHMOND   CLOUDY    27  19  70 E8        29.90R WCI  19
6HR MIN TEMP:  22; 6HR MAX TEMP:  27;

OSCEOLA        CLOUDY    26  19  74 E7        29.94R WCI  19
6HR MIN TEMP:  23; 6HR MAX TEMP:  26;

$$

WIZ003>005-009-010-017-018-161900-
NORTH CENTRAL WISCONSIN

CITY           SKY/WX    TMP DP  RH WIND       PRES   REMARKS
MANITOWISH WTR CLOUDY    17   7  64 E6        29.93R WCI   8
6HR MIN TEMP:   2; 6HR MAX TEMP:  17;

ARBOR VITAE    CLOUDY    19  10  66 SE7       29.92R WCI  10
6HR MIN TEMP:   5; 6HR MAX TEMP:  19;

WOODRUFF       CLOUDY    19  10  66 SE7       29.92R WCI  10
6HR MIN TEMP:   5; 6HR MAX TEMP:  19;

RHINELANDER    CLOUDY    16   8  71 E8        29.93S WCI   5
6HR MIN TEMP:   2; 6HR MAX TEMP:  16;

EAGLE RIVER    CLOUDY    17   6  61 E7        29.91F WCI   8
6HR MIN TEMP:   1; 6HR MAX TEMP:  17;

LAND O LAKES   CLOUDY    18   6  59 E7        29.94R WCI   8
6HR MIN TEMP:  10; 6HR MAX TEMP:  18;

PHILLIPS       CLOUDY    15   8  71 E5        29.93R WCI   8
6HR MIN TEMP:  11; 6HR MAX TEMP:  15;

TOMAHAWK       CLOUDY    17   9  69 NE3       29.94R
6HR MIN TEMP:  10; 6HR MAX TEMP:  17;

MEDFORD        CLOUDY    18   8  63 E7        29.91R WCI   9
6HR MIN TEMP:  14; 6HR MAX TEMP:  18;

MERRILL        CLOUDY    19   9  65 E7        29.93S WCI   9
6HR MIN TEMP:  14; 6HR MAX TEMP:  19;

$$

WIZ029-030-035-036-043>047-161900-
CENTRAL WISCONSIN

CITY           SKY/WX    TMP DP  RH WIND       PRES   REMARKS
WAUSAU         CLOUDY    19  11  70 E10       29.92R WCI   7
6HR MIN TEMP:  14; 6HR MAX TEMP:  19;

MOSINEE        CLOUDY    19  12  73 E6        29.94R WCI  11
MARSHFIELD     CLOUDY    20  14  77 E10       29.90R WCI   9
6HR MIN TEMP:  16; 6HR MAX TEMP:  20;

STEVENS POINT  CLOUDY    19  14  80 E7        29.94R WCI  10
6HR MIN TEMP:  14; 6HR MAX TEMP:  19;

WAUPACA        CLOUDY    25  16  69 NE3       29.96R
6HR MIN TEMP:  19; 6HR MAX TEMP:  25;

WAUTOMA        CLOUDY    24  19  81 E8        29.93R WCI  15
6HR MIN TEMP:  18; 6HR MAX TEMP:  24;

WISC RAPIDS    CLOUDY    21  15  78 E10       29.95R WCI  10
6HR MIN TEMP:  17; 6HR MAX TEMP:  21;

CAMP DOUGLAS   CLOUDY    27  21  80 E6        29.91S WCI  20
$$

WIZ011>013-019>022-031-037>040-048>050-161900-
NORTHEAST WISCONSIN

CITY           SKY/WX    TMP DP  RH WIND       PRES   REMARKS
ANTIGO         CLOUDY    16   9  74 E10       29.93S WCI   4
6HR MIN TEMP:  11; 6HR MAX TEMP:  17;

SHAWANO        CLOUDY    23  14  68 NE6       29.97S WCI  16
6HR MIN TEMP:  16; 6HR MAX TEMP:  23;

OCONTO         CLOUDY    22  13  70 N5        30.00R WCI  15
6HR MIN TEMP:  14; 6HR MAX TEMP:  22;

STURGEON BAY   CLOUDY    28  18  66 NE7       29.98R WCI  21
6HR MIN TEMP:  18; 6HR MAX TEMP:  28;

GREEN BAY      CLOUDY    25  17  72 NE14      29.95S WCI  13
6HR MIN TEMP:  18; 6HR MAX TEMP:  25;

MANITOWOC      CLOUDY    29  24  82 E9        29.94F WCI  20
6HR MIN TEMP:  18; 6HR MAX TEMP:  29; 6HR PCP: TRACE;

APPLETON       CLOUDY    23  14  68 E9        29.92R WCI  13
CLINTONVILLE   NOT AVBL
OSHKOSH        CLOUDY    27  23  85 NE10      29.93R WCI  17
6HR MIN TEMP:  19; 6HR MAX TEMP:  27;

$$

WIZ032>034-041-042-053>061-161900-
SOUTHWEST WISCONSIN

CITY           SKY/WX    TMP DP  RH WIND       PRES   REMARKS
LA CROSSE      SUNNY     31  23  72 E9        29.88S WCI  23
6HR MIN TEMP:  27; 6HR MAX TEMP:  33;

SPARTA         CLOUDY    27  22  80 E10       29.90F WCI  17
6HR MIN TEMP:  24; 6HR MAX TEMP:  29;

VIROQUA        SUNNY     31  27  85 CALM      29.86R
6HR MIN TEMP:  25; 6HR MAX TEMP:  32;

BOSCOBEL       SUNNY     41  27  57 N7        29.87R
6HR MIN TEMP:  26; 6HR MAX TEMP:  42;

PRAIRIE DU CHI SUNNY     40  23  52 CALM      29.84F
6HR MIN TEMP:  28; 6HR MAX TEMP:  40;

PLATTEVILLE    SUNNY     41  27  56 CALM      29.84S
6HR MIN TEMP:  27; 6HR MAX TEMP:  42;

$$

WIZ056-057-062-063-064-067-068-161900-
SOUTH CENTRAL WISCONSIN

CITY           SKY/WX    TMP DP  RH WIND       PRES   REMARKS
REEDSBURG      CLOUDY    28  23  83 NE7       29.90R WCI  21
6HR MIN TEMP:  23; 6HR MAX TEMP:  28;

BARABOO/DELLS  CLOUDY    28  24  86 NE8       29.90R WCI  19
6HR MIN TEMP:  22; 6HR MAX TEMP:  28;

LONE ROCK      CLOUDY    38  27  64 E6        29.88R WCI  33
6HR MIN TEMP:  25; 6HR MAX TEMP:  38;

MINERAL POINT  SUNNY     41  28  60 E5        29.83F
MADISON        PTSUNNY   38  27  64 E7        29.88R WCI  33
6HR MIN TEMP:  28; 6HR MAX TEMP:  39;

MIDDLETON      SUNNY     41  25  53 E7        29.87R
6HR MIN TEMP:  29; 6HR MAX TEMP:  41;

WATERTOWN      CLOUDY    35  33  90 E12       29.88R WCI  27
6HR MIN TEMP:  29; 6HR MAX TEMP:  35;

MONROE         SUNNY     39  27  60 CALM      29.84S
JANESVILLE     SUNNY     43  25  49 CALM      29.86S
$$

WIZ051-052-058>065-066-070>072-161900-
SOUTHEAST WISCONSIN

CITY           SKY/WX    TMP DP  RH WIND       PRES   REMARKS
MILWAUKEE      PTSUNNY   39  34  82 E10       29.88S WCI  32
6HR MIN TEMP:  32; 6HR MAX TEMP:  41;

WAUKESHA       CLOUDY    32  30  93 NE12      29.89S WCI  23
MILWAUKEE/TIMM CLOUDY    34  28  80 NE9       29.90S WCI  26
RACINE         SUNNY     40  26  57 SE5       29.89F
6HR MIN TEMP:  33; 6HR MAX TEMP:  41;

BURLINGTON     SUNNY     51  40  64 CALM      29.87S
6HR MIN TEMP:  27; 6HR MAX TEMP:  61;

KENOSHA        SUNNY     41  25  53 SE3       29.87F
6HR MIN TEMP:  32; 6HR MAX TEMP:  42;

FOND DU LAC    CLOUDY    30  24  78 E8        29.91S WCI  22
6HR MIN TEMP:  22; 6HR MAX TEMP:  30;

SHEBOYGAN      CLOUDY    29  25  85 E12       29.92F WCI  19
6HR MIN TEMP:  21; 6HR MAX TEMP:  30; 6HR PCP: TRACE;

WEST BEND      CLOUDY    30  30 100 E13G18    29.89S WCI  20
JUNEAU         CLOUDY    31  28  90 E12       29.90R WCI  22
6HR MIN TEMP:  26; 6HR MAX TEMP:  31;

$$

LSZ147-162-161900-
LAKE SUPERIOR

STATION/POSITION TIME  TEMP    WIND        PRES    WAVE
                       AIR SEA DIR/SP/G            HT/PER
                 (UTC) (F)     (DEG/KT/KT) (MB)    (FT/S)
DEVILS ISLAND    1800   23      90/ 14/ 16 1017.0F
SAXON HARBOR     1740   21                 1015.2S
$$

LMZ867-665-643>646-161900-
LAKE MICHIGAN

STATION/POSITION TIME  TEMP    WIND        PRES    WAVE
                       AIR SEA DIR/SP/G            HT/PER
                 (UTC) (F)     (DEG/KT/KT) (MB)    (FT/S)
NORTHPORT PIER   1740



USA.gov is the U.S. government's official web portal to all federal, state and local government web resources and services.